Погода в Совхозе Татарстан

Россия / Республика Татарстан     55°37′14″N   52°35′56″E
темп.,
°C
ветер,
м/с
пор.,
м/с
влажн.,
%
обл.,
%
осадки,
мм/ч
давл.,
гПа
погр.,
м
8 августа, пн
пн800:00+19ссв227217 0.0 102011
03:00+18ссв1175100 0.0 102011
06:00+21ссз117114 0.0 102073
09:00+26ссв225436 0.0 1020566
12:00+29св114279 0.0 10201899
15:00+29с113921 0.0 10192062
18:00+23ссз477121 0.1 1019200
21:00+21ссз227133 0.1 102017
9 августа, вт
вт900:00+20зсз117699 0.0 101911
03:00+19с118163 0.0 102011
06:00+21всв1171100 0.0 102058
09:00+25ссз1156100 0.0 1020422
12:00+28ссв124699 0.0 10191369
15:00+29ссв1142100 0.0 10191992
18:00+25ссз226282 0.0 101822
21:00+21с116998 0.0 101811
10 августа, ср
ср1000:00+21сз1168100 0.1 101811
03:00+20юз1173100 0.2 101811
06:00+21зсз1273100 0.0 101878
09:00+25зсз225894 0.0 1018557
12:00+28зюз334617 0.1 10181630
15:00+29зсз33423 0.1 10172310
18:00+25зюз235963 0.0 101743
21:00+21зсз357080 0.0 101776
11 августа, чт
чт1100:00+18ссз119394 0.8 101711
03:00+18зсз239478 2.2 1016118
06:00+18зсз3591100 0.1 1017180
09:00+21зсз677367 0.1 10171002
12:00+21сз78580 0.1 10181134
15:00+20сз895416 0.1 10181581
18:00+16ссз696976 0.0 10201097
21:00+13сз49830 0.0 1021247
12 августа, пт
пт1200:00+12зсз35840 0.0 102181
03:00+12зсз4984100 0.0 1021152
06:00+15з4107192 0.0 1021263
09:00+20зсз685552 0.0 1021643
12:00+23зсз794698 0.0 10192325
15:00+23зсз710445 0.0 10182387
18:00+20зсз510555 0.0 1018407
21:00+16з48685 0.0 1018124